Miscellaneous Local Product
Issued by NWS North Platte, NE

Home | Current Version | Previous Version | Text Only | Print | Product List | Glossary On
Versions: 1 2 3 4 5 6 7 8 9 10 11 12 13 14 15 16 17 18 19 20 21 22 23 24 25 26 27 28 29 30 31 32 33 34 35 36 37 38 39 40 41 42 43 44 45 46 47 48 49 50
850
AXUS43 KLBF 270310
MISLBF


WESTERN AND NORTH CENTRAL NEBRASKA HOURLY WEATHER ROUNDUP
NATIONAL WEATHER SERVICE NORTH PLATTE NE
1000 PM CDT FRI AUG 26 2016

NOTE: "FAIR" INDICATES FEW OR NO CLOUDS BELOW 12,000 FEET WITH NO
SIGNIFICANT WEATHER AND/OR OBSTRUCTIONS TO VISIBILITY.

NOTE: STATIONS NOT REPORTING VARIABLES SUCH AS SKY/WEATHER OR
PRESSURE ARE PROVIDED BY RAWS AND APRS NETWORKS AND ARE NOT UNDER
NATIONAL WEATHER SERVICE QUALITY CONTROL.

...OBSERVATIONS IN AND NEAR THE EASTERN PANHANDLE OF NEBRASKA...

CITY           SKY/WX    TMP DP  RH WIND       PRES   REMARKS
PINE RIDGE     CLEAR     60  55  83 CALM      30.02R
CHADRON        CLEAR     60  53  77 S8        30.00R
ALLIANCE       CLEAR     55  53  93 SE8       30.05R
SIDNEY         CLOUDY    55  52  89 S7        30.10R
CRESCENT LAKE    N/A     56  54  93 S3          N/A
$$

...OBSERVATIONS IN NORTHERN NEBRASKA AND FAR SOUTHERN SOUTH DAKOTA...

CITY           SKY/WX    TMP DP  RH WIND       PRES   REMARKS
WINNER         FAIR      61  58  90 SE7       30.04R
VALENTINE      CLOUDY    58  56  93 E6        30.05R
THEDFORD       CLOUDY    60  59  95 CALM      30.07S
AINSWORTH      MOCLDY    60  55  81 SE6       30.06R
O`NEILL        CLOUDY    66  58  73 E9        30.07R
ORD            CLOUDY    64  59  83 SE5       30.05R
BROKEN BOW     CLOUDY    61  58  90 E9        30.03S
VALENTINE NWR    N/A     58  57  96 SE3         N/A
BUTTE            N/A     64  56  76 E5          N/A
HALSEY           N/A     60  56  88 CALM        N/A
EWING            N/A     65  61  87 CALM        N/A
$$

...OBSERVATIONS IN SOUTHWEST NEBRASKA AND FAR NORTHEAST COLORADO...

CITY           SKY/WX    TMP DP  RH WIND       PRES   REMARKS
WRAY           FAIR      57  54  88 SE5       30.08
HOLYOKE        FAIR      59  55  88 S3        30.09R
IMPERIAL       CLOUDY    57  55  93 S5        30.06S
OGALLALA       CLOUDY    56  54  91 CALM      30.06R
NORTH PLATTE   CLOUDY    61  58  90 N7        30.04S
MCCOOK         CLOUDY    60  55  83 E13       30.05R
LEXINGTON      LGT RAIN  65  60  83 SE12      30.04F
STAPLETON        N/A     59  58  95 CALM        N/A
GOTHENBURG       N/A     64  58  82 E9          N/A
CALLAWAY         N/A     61  58  88 SE9         N/A
$$

...OBSERVATIONS IN CENTRAL LINCOLN COUNTY AREA...

CITY           SKY/WX    TMP DP  RH WIND       PRES   REMARKS
N.P. AIRPORT   CLOUDY    61  58  90 N7        30.04S
N.P. DOWNTOWN    N/A     60  58  94 CALM        N/A
N.P. SOUTHEAST   N/A     61  59  92 CALM        N/A
N.P. HILLCREST   N/A     60  58  93 CALM        N/A
$$

...SOME OBSERVATIONS FROM AROUND THE REGION...

CITY           SKY/WX    TMP DP  RH WIND       PRES   REMARKS
DENVER         PTCLDY    62  49  62 SE16      30.12R
LARAMIE        CLOUDY    59  33  37 SW16      30.18R
CHEYENNE       CLOUDY    57  50  77 CALM      30.16R
SCOTTSBLUFF    CLEAR     58  55  90 SE7       30.06R
RAPID CITY     CLOUDY    57  55  93 N9        30.04F
BISMARCK       CLEAR     58  54  86 S8        30.01R
PIERRE         PTCLDY    58  53  84 E6        30.03R
SIOUX FALLS    CLOUDY    67  59  75 SE12      30.08R
OMAHA          CLOUDY    68  62  81 E5        30.07R
GRAND ISLAND   CLOUDY    64  62  93 SE10      30.05F
KANSAS CITY    CLOUDY    70  69  97 E5        30.04R
WICHITA        PTCLDY    76  67  73 SE6       30.01R
OKLAHOMA CITY  MOCLDY    72  69  90 SE6       30.03S
DALLAS         CLOUDY    79  68  69 SE8       30.00F
AMARILLO       CLOUDY    73  59  61 W13       30.13R
DODGE CITY     CLEAR     68  64  87 E5        30.04R
HAYS           CLOUDY    70  59  68 E9        30.03S
GOODLAND       CLOUDY    55  51  86 E5        30.08R
$$




USA.gov is the U.S. government's official web portal to all federal, state and local government web resources and services.